Hourly Data Report for September 15, 2020

OTTAWA INTL A
ONTARIO
Current Station Operator: NAVCAN

45°19'00.000" N
75°40'00.000" W
114.90 m
6106001
71628
YOW

Download Data

Hourly Data (September 2020)
Hourly Data Report for September 15, 2020
TIME
LST
Temp Definition
°C
Dew Point Definition
°C
Rel Hum Definition
%
Precip. Amount Definition
mm

Wind Dir Definition
10's deg

Wind Spd Definition
km/h
Visibility Definition
km
Stn Press Definition
kPa
Hmdx Definition


Wind Chill Definition


Weather Definition


00:00 5.0 4.5 97   29 7 24.1 101.41     LegendNANA
01:00 4.8 4.2 96   24 5 24.1 101.39     Mainly Clear
02:00 5.0 4.7 97   28 7 24.1 101.42     LegendNANA
03:00 4.8 4.4 98   32 7 24.1 101.40     LegendNANA
04:00 4.8 4.2 95   28 4 24.1 101.43     Mainly Clear
05:00 3.6 3.2 98   29 4 24.1 101.47     LegendNANA
06:00 3.0 2.8 99   36 3 24.1 101.52     LegendNANA
07:00 3.0 2.8 98   6 3 24.1 101.53     Mainly Clear
08:00 6.4 6.1 98   17 4 24.1 101.48     LegendNANA
09:00 8.7 6.6 86   16 5 24.1 101.47     LegendNANA
10:00 11.1 5.9 70   15 13 24.1 101.38     Mostly Cloudy
11:00 12.4 4.8 60   17 10 24.1 101.34     LegendNANA
12:00 13.8 3.9 51   19 11 24.1 101.28     LegendNANA
13:00 13.9 6.0 58   20 14 24.1 101.17     Mostly Cloudy
14:00 13.8 3.8 51   23 5 24.1 101.21     LegendNANA
15:00 13.5 5.5 58   19 14 24.1 101.00     LegendNANA
16:00 13.8 5.3 56   21 8 24.1 101.05     Cloudy
17:00 13.2 7.5 68   15 12 24.1 100.87     LegendNANA
18:00 12.7 7.1 68   14 11 24.1 100.82     LegendNANA
19:00 12.1 7.4 73   15 10 24.1 100.81     Cloudy
20:00 12.1 8.3 77   16 11 24.1 100.74     LegendNANA
21:00 11.6 8.6 81   15 11 24.1 100.67     LegendNANA
22:00 11.1 8.0 81   16 8 24.1 100.59     Cloudy
23:00 10.9 7.4 79   17 12 24.1 100.50     LegendNANA

Notes on Data Quality.

Legend

  • E = Estimated
  • M = Missing
  • NA = Not Available*
  • [empty] = Indicates an unobserved value
Date modified: